Regional Weather Roundup
Issued by NWS

Home | Current Version | Previous Version | Text Only | Print | Product List | Glossary Off
Versions: 1 2 3 4 5 6 7 8 9 10 11 12 13 14 15 16 17 18 19 20 21 22 23 24 25 26 27 28 29 30 31 32 33 34 35 36 37 38 39 40 41 42 43 44 45 46 47 48 49 50

000
ASUS45 KCYS 042310
RWRWY

WYOMING REGIONAL WEATHER ROUNDUP
NATIONAL WEATHER SERVICE CHEYENNE WY
500 PM MDT SAT JUL 04 2015

NOTE:  "FAIR" INDICATES FEW OR NO CLOUDS BELOW 12,000 FEET
WITH NO SIGNIFICANT WEATHER AND/OR OBSTRUCTIONS TO VISIBILITY.

WYZ001-050000-
YELLOWSTONE NATIONAL PARK

CITY           SKY/WX    TMP DP  RH WIND       PRES   REMARKS
LK YELLOWSTONE   N/A     78  34  20 VRB7      30.17S
W YELLOWSTONE  NOT AVBL

$$
WYZ002>013-054>058-071-098>099-050000-
NORTHERN WYOMING

CITY           SKY/WX    TMP DP  RH WIND       PRES   REMARKS
JACKSON        FAIR      86  36  16 SW12      30.02F
CODY           FAIR      91  39  16 S5        29.87F
GREYBULL       FAIR      98  32  10 VRB5      29.77F HX  92
WORLAND        FAIR      96  44  16 NE6       29.80F HX  92
SHERIDAN       FAIR      94  47  20 VRB3      29.82F HX  90
BUFFALO        FAIR      89  48  24 S3        29.91F
GILLETTE       FAIR      91  46  21 VRB3      29.85F
HULETT         FAIR      88  50  27 CALM      29.87F
NEWCASTLE      FAIR      90  36  14 N7        29.87F

$$
WYZ014>020-022>026-101>103-050000-
CENTRAL WYOMING

CITY           SKY/WX    TMP DP  RH WIND       PRES   REMARKS
BIG PINEY      FAIR      89  30  12 NW16      30.07F
PINEDALE       FAIR      86  32  14 W14G20    30.08S
DUBOIS         MOCLDY    84  30  14 NW17      30.05F
LANDER         FAIR      94  44  17 NE9       29.89F HX  90
RIVERTON       FAIR      94  41  16 VRB7      29.89F HX  90
CASPER         FAIR      96  33  11 W8G17     29.90F HX  91
DOUGLAS        FAIR      92  50  23 NE13      29.90F

$$
WYZ021-027>030-104>119-050000-
SOUTHERN WYOMING

CITY           SKY/WX    TMP DP  RH WIND       PRES   REMARKS
EVANSTON       PTSUNNY   79  51  37 E9        30.11F
KEMMERER       FAIR     N/A N/A N/A SW16G22   30.12S
FORT BRIDGER   CLEAR     86  41  20 W12       30.14F
ROCK SPRINGS   PTSUNNY   85  40  20 W20G28    30.05F
DIXON          FAIR      85  45  24 E9        30.09F
RAWLINS        FAIR      87  39  18 W14       30.04F
SARATOGA       FAIR      84  43  23 SW17      30.10
LARAMIE        FAIR      85  41  21 W18       30.09F
CHEYENNE       FAIR      88  47  24 SE5       30.01F
TORRINGTON     FAIR      94  51  23 VRB7      29.83F HX  91
PINE BLUFFS    FAIR      90  48  24 E7        29.94F

$$


USA.gov is the U.S. government's official web portal to all federal, state and local government web resources and services.